Volver al catálogo

STARLINK-35921

ActivoComunicacionesVLEO
NORAD 66640·PAYLOAD·🇺🇸 United States

Lanzado Nov 23, 2025 desde Vandenberg Space Force Base

Loading…

Próximos Pases (próximas 24 horas)

TLE

ActualizadoSource: CelesTrak SupGP

Época: Sep 15, 2026, 03:59 UTC

1 66640C 25271Z   26258.16645833  .00061906  00000+0  18283-2 0  2581
2 66640  53.1600 338.4894 0001200  89.8072 332.7110 15.34372144    17

Sigue STARLINK-35921 en tiempo real con AllMySat

Download on the App Store